{"data":{"norad_id":58685,"epoch":"2026-05-25T00:38:25.084608Z","epoch_age_seconds":79536,"freshness":"FRESH","line1":"1 58685U 23211U   26145.02667922  .00000231  00000+0  17933-4 0  9995","line2":"2 58685  43.0047  13.7962 0001291 265.0261  95.0443 15.27576714134148","mean_motion":15.27576714,"eccentricity":0.0001291,"inclination_deg":43.0047,"raan_deg":13.7962,"arg_perigee_deg":265.0261,"mean_anomaly_deg":95.0443,"bstar":1.7933e-5,"rev_number":13414,"period_min":94.266951492689,"perigee_km":482.17315512815,"apogee_km":483.9447159187,"semimajor_km":6861.1959355234,"source":"CELESTRAK","updated_at":"2026-05-25T13:38:18.713822Z"}}